User: anonymous   Login
Location: Ferchesar
(52.6477°N, 12.4298°E)
Time: 08:56:59
(UTC+01:00)
Language:

Tiangong - Orbit

View from above orbital plane
View from above orbital plane
View from above satellite
View from above satellite

Ground track
Ground track

The orbit data is extracted from the following two-line orbital elements,

1 48274U 21035A   22340.23448334  .00026748  00000-0  33223-3 0  9991
2 48274  41.4768 251.3273 0005301  26.2617 111.7700 15.59372933 91669
Epoch (UTC): 06 December 2022 05:37:39
Eccentricity: 0.0005301
inclination: 41.4768°
perigee height: 386 km
apogee height: 393 km
right ascension of ascending node: 251.3273°
argument of perigee: 26.2617°
revolutions per day: 15.59372933
mean anomaly at epoch: 111.7700°
orbit number at epoch: 9166

The dashed part of the orbit path shows where the satellite is in the earth's shadow,  

DLR